Theta_e
337 336 336 338 339 339 338 337 336 334 333 331 324 319 319 323 321 320 327 331 329 328 326 326 331 333 332 333 334 335 337 337 335 334 331 329 328 329 329 329 328 326 325 322 319 316 315 315 315 316 315 312 309 306 303 300 298 299 300 301 301 302 303 304 306 308 310 312 313 314 314 314 314 314 314 314 313 313 313 313 313 313 313 313 313
336 335 333 336 339 338 338 337 335 334 334 334 328 320 324 331 329 326 329 331 330 330 328 327 330 332 332 333 334 334 336 335 335 335 333 330 328 328 328 327 327 325 323 321 317 316 319 319 318 319 317 312 309 305 302 300 298 300 301 302 303 304 305 307 309 312 313 315 315 314 314 313 312 312 312 313 313 313 313 313 313 312 312 312 312
335 334 332 334 336 337 338 337 336 334 334 335 332 327 332 336 333 331 330 330 330 331 330 329 331 332 333 333 334 333 335 335 335 334 333 332 329 327 326 326 325 323 321 319 315 314 318 319 318 320 318 313 310 305 301 299 298 299 300 302 304 306 309 311 313 314 314 315 315 315 314 312 311 311 311 311 311 312 312 313 312 311 311 312 312
334 335 334 332 333 336 337 337 336 335 335 336 335 332 334 335 335 335 332 331 332 332 331 331 331 333 333 333 334 333 334 334 334 333 333 332 328 326 325 324 323 321 319 315 311 311 316 319 320 320 318 314 310 305 300 298 298 299 300 302 305 309 312 314 314 315 314 314 314 314 314 312 311 311 310 309 310 310 311 311 311 310 311 312 312
334 336 336 332 333 335 337 338 337 335 336 337 336 333 333 334 336 335 333 333 333 333 333 332 332 333 334 335 334 334 334 333 333 332 332 331 328 327 324 323 322 318 314 310 308 309 314 320 321 320 320 317 312 307 302 300 299 300 301 303 306 310 313 314 314 314 315 313 312 312 313 312 311 311 310 309 309 310 310 310 310 310 311 312 311
334 338 337 332 333 336 336 337 338 337 337 337 335 333 334 335 335 334 334 334 333 333 333 333 333 334 335 336 335 334 333 333 333 332 332 331 329 328 325 324 321 313 311 310 308 308 313 319 321 321 321 319 316 313 310 307 305 304 306 307 309 310 311 312 312 313 315 314 312 312 312 312 311 311 311 309 309 310 310 310 310 310 311 312 311
335 339 338 334 335 337 336 337 338 337 337 337 335 334 335 336 335 334 335 335 335 334 334 334 334 335 336 335 335 334 333 332 332 332 333 331 330 329 326 324 320 315 316 315 311 309 312 318 322 321 320 319 319 318 317 315 312 311 311 312 312 311 311 312 312 313 314 313 313 312 311 310 310 311 311 309 309 310 310 310 310 311 311 311 311
335 339 339 337 337 338 337 337 338 337 337 337 336 335 336 336 334 334 335 336 336 336 335 335 335 335 336 335 335 334 333 332 332 332 333 331 330 329 327 325 322 321 321 319 314 309 310 318 321 318 315 317 319 318 318 317 316 314 313 313 313 312 312 311 312 313 312 312 312 312 311 309 309 311 310 309 310 310 310 310 311 311 311 311 310
336 339 339 339 338 338 339 338 337 338 337 335 335 336 336 335 334 334 334 335 336 337 337 336 336 336 335 335 335 334 333 333 332 331 331 331 330 329 328 325 324 323 322 320 317 311 309 314 316 311 309 315 318 318 317 316 315 314 312 311 311 312 312 311 312 312 312 311 311 311 310 309 309 310 309 309 310 310 310 311 311 311 311 311 310
336 340 339 338 338 338 338 337 336 337 335 333 333 336 335 333 334 334 334 334 336 337 337 337 336 335 335 335 334 333 333 332 332 331 330 329 330 329 327 326 324 323 322 321 320 316 315 314 310 306 306 313 318 318 318 316 315 315 313 311 312 312 313 312 311 312 312 311 310 309 308 308 309 309 308 310 310 310 311 311 310 310 310 310 310
336 340 339 338 339 338 336 335 335 335 334 333 333 334 335 335 334 334 335 336 337 337 337 337 336 335 335 333 333 332 332 332 332 331 327 327 328 327 325 325 324 323 322 321 320 320 320 317 311 304 302 306 311 313 314 312 312 314 314 312 312 309 310 312 311 311 311 310 309 308 307 308 309 308 309 310 310 310 312 311 309 310 310 309 309
334 339 339 337 339 337 335 335 336 335 334 335 336 333 334 337 336 335 336 337 337 337 337 337 336 334 333 333 332 332 331 331 332 330 326 324 325 324 323 323 322 322 322 320 321 321 321 320 315 306 300 301 304 304 304 303 304 308 310 310 307 303 306 310 309 309 310 308 307 307 307 308 308 308 309 310 310 311 311 310 309 309 309 309 309
332 338 337 336 339 338 336 337 337 337 336 337 338 336 336 338 338 337 338 338 337 337 337 337 335 334 333 333 332 332 332 332 332 331 327 324 323 323 322 322 320 319 319 319 320 321 320 320 318 311 305 303 303 302 299 300 300 301 304 307 304 302 304 306 306 307 307 306 306 306 307 308 308 308 309 310 310 311 311 309 309 309 309 308 309
331 337 336 333 339 341 340 340 340 340 340 339 339 340 339 339 339 339 339 338 337 337 338 336 334 334 332 332 332 332 332 331 332 331 329 325 322 323 322 321 320 317 315 317 319 320 320 320 318 314 311 310 307 305 302 304 303 300 303 306 305 304 305 303 302 304 303 302 303 306 307 308 308 308 308 309 309 310 310 308 308 308 308 308 309
332 337 336 333 337 342 342 342 342 342 343 342 342 342 341 340 340 339 339 338 336 337 338 336 334 333 332 334 333 332 332 332 331 332 331 328 324 323 322 321 320 317 314 316 317 317 318 319 318 314 314 314 312 308 306 307 307 304 304 306 305 307 307 303 301 301 299 299 301 305 307 308 308 308 308 308 309 310 309 307 307 307 307 308 309
334 338 338 337 338 340 342 342 343 344 343 342 343 342 341 341 341 340 338 337 336 337 337 336 334 333 333 334 332 332 336 334 330 331 331 331 327 323 323 321 319 317 315 315 314 314 316 317 316 313 313 315 314 311 307 307 308 307 306 306 306 309 309 304 302 300 297 297 299 304 307 307 308 306 306 308 309 309 308 306 306 306 307 308 308
336 339 339 340 341 340 342 342 343 344 343 342 343 343 342 342 341 340 338 336 336 336 337 335 334 333 333 334 333 335 338 333 330 332 330 331 329 324 322 322 320 318 316 315 314 313 314 315 314 312 312 313 313 311 308 308 308 308 308 307 307 310 310 306 304 301 298 296 297 302 306 307 307 305 304 308 309 308 307 304 303 305 307 308 308
336 339 340 340 340 341 341 342 342 343 343 342 343 343 343 342 340 339 338 337 336 336 336 335 334 333 332 333 334 336 335 332 332 334 331 330 331 327 323 321 321 320 317 316 315 314 313 312 312 312 312 312 311 310 310 309 309 309 309 307 308 310 310 308 305 301 298 296 296 301 304 305 305 303 303 308 309 308 305 301 301 304 307 307 307
335 337 340 339 339 340 341 342 342 342 342 343 342 343 343 342 340 339 338 337 336 336 336 335 335 334 332 332 332 333 333 332 332 334 334 331 330 328 325 322 322 321 319 316 315 314 313 311 310 311 311 311 310 310 309 308 309 310 309 308 310 311 310 308 306 301 297 296 296 299 302 304 303 300 304 308 308 306 302 298 299 303 305 306 305
337 336 338 339 339 340 341 342 343 342 342 342 342 342 343 342 341 339 338 337 336 336 336 336 335 335 333 333 332 333 334 332 331 332 333 333 331 329 327 324 322 322 320 317 315 314 313 311 310 311 311 311 310 310 308 307 309 310 310 310 311 311 310 308 306 301 297 296 296 296 299 301 300 299 305 309 308 304 298 296 299 301 303 305 302
338 337 338 338 338 340 341 341 342 342 341 342 343 342 342 342 342 339 339 338 337 336 335 335 335 335 335 334 334 334 334 334 332 331 330 332 332 329 327 324 322 322 321 318 315 315 314 313 311 310 311 310 310 311 309 308 310 311 310 311 311 310 310 308 306 302 298 296 296 295 296 297 296 298 305 308 306 301 296 295 298 301 302 301 298
339 338 338 338 338 339 340 341 342 343 342 342 343 342 342 343 342 340 339 339 338 336 335 335 335 335 336 335 335 335 335 334 333 332 330 330 331 328 325 323 322 321 322 320 317 315 315 314 312 311 311 310 311 311 310 309 310 310 310 311 311 311 310 308 306 303 298 296 296 295 295 295 294 297 303 305 301 296 294 295 297 299 299 296 295
340 339 338 339 338 338 339 341 342 342 343 343 342 342 342 343 343 341 340 339 339 338 336 336 335 335 336 335 335 335 335 334 333 333 331 329 331 329 324 323 322 322 322 322 320 317 316 315 313 311 311 311 311 311 311 310 310 310 310 311 311 311 310 309 307 303 298 296 296 295 295 295 294 296 299 299 296 294 294 295 295 295 295 294 295
339 339 339 339 339 338 339 340 341 342 342 343 342 342 341 342 343 342 341 340 339 338 337 336 336 336 335 335 336 335 335 334 333 333 332 330 330 329 325 324 323 322 322 322 321 320 318 316 314 311 312 312 311 311 311 311 311 310 311 311 311 311 310 309 307 303 298 296 296 295 295 295 295 295 295 295 294 294 294 294 294 294 294 295 296
339 339 339 339 339 339 339 340 340 341 341 342 342 341 341 342 343 342 341 340 339 338 337 337 336 335 336 336 335 335 335 334 333 333 331 330 328 328 327 326 323 322 323 322 321 321 320 318 316 312 312 312 312 311 311 311 311 311 311 311 311 311 310 309 307 303 298 296 295 295 295 295 295 295 295 295 295 295 294 294 294 294 295 296 297
339 339 339 338 338 339 339 340 340 341 341 342 341 341 341 341 342 342 341 340 339 338 337 337 336 335 335 335 335 335 334 334 333 332 330 330 329 328 328 329 326 323 322 323 322 320 320 320 318 314 312 313 312 312 311 311 311 311 311 311 311 310 309 308 306 302 299 296 296 296 296 296 296 295 295 295 295 295 295 295 295 295 296 297 298
338 338 339 338 338 338 339 340 340 341 342 341 341 341 341 341 342 342 341 340 339 339 338 337 336 335 335 335 335 335 334 333 333 332 331 330 330 329 330 332 331 326 321 321 321 320 320 320 318 315 313 314 313 311 312 311 311 311 310 310 310 309 309 307 304 302 300 298 299 298 297 296 296 296 296 295 295 295 295 296 296 296 297 297 298
338 338 338 338 338 338 339 340 340 341 342 342 341 341 341 341 342 341 341 340 340 339 338 337 336 335 334 335 335 335 334 333 333 332 331 331 330 330 330 330 333 332 325 322 320 319 320 320 317 315 314 314 312 311 311 311 311 311 310 310 310 309 308 306 303 303 302 300 301 301 298 297 296 296 296 296 296 296 297 297 297 297 298 298 298
339 338 338 338 338 339 339 340 341 340 341 342 341 341 341 341 341 341 341 340 340 339 338 337 336 336 335 336 335 334 334 333 333 332 331 332 331 330 331 329 330 333 330 327 323 319 319 319 316 314 314 313 312 311 311 311 311 311 310 310 309 309 307 304 302 304 304 302 303 303 301 298 297 297 297 297 297 298 298 298 298 298 298 298 299
340 339 340 339 339 340 340 341 341 341 341 342 342 341 341 341 341 341 341 340 340 339 338 338 337 336 337 337 335 334 333 333 332 332 332 332 331 330 331 330 329 330 329 329 328 321 319 319 317 315 315 313 312 312 311 311 311 310 310 309 308 307 305 302 302 304 305 303 304 304 303 301 299 298 298 298 298 299 299 298 298 298 299 299 300
341 340 341 341 340 340 340 341 341 341 341 341 342 341 341 341 341 341 341 340 340 339 338 338 337 337 337 336 334 333 333 332 332 333 332 332 332 331 331 330 329 329 327 327 328 323 318 318 317 315 315 313 312 311 311 311 310 310 310 308 306 305 304 303 302 304 305 305 305 304 304 303 301 299 298 298 298 298 298 298 298 298 299 300 301
342 341 342 341 341 341 341 341 341 342 341 341 342 342 341 341 341 341 340 340 339 339 339 338 337 336 336 334 334 333 333 333 333 333 332 332 332 331 331 330 329 329 326 323 323 321 317 316 316 314 313 313 311 311 310 310 310 310 309 307 305 305 304 303 303 304 305 305 305 305 304 304 303 302 300 299 299 299 299 300 300 300 300 301 301
343 342 342 342 342 341 341 341 341 341 341 341 341 342 341 341 341 340 340 339 339 339 338 338 336 335 334 333 333 332 332 333 333 332 332 331 332 331 330 330 328 328 326 322 320 317 314 313 313 312 312 311 310 310 310 310 309 309 307 306 305 305 304 304 304 305 305 305 305 305 304 304 304 304 302 301 301 301 301 302 302 302 302 302 303
344 343 343 342 342 342 341 341 341 341 341 341 342 342 342 341 341 340 339 338 338 338 337 336 335 334 334 333 332 331 331 331 331 331 330 330 331 331 330 329 328 327 325 322 319 317 313 311 310 310 310 310 310 310 310 309 309 308 307 306 306 305 304 304 305 305 305 305 305 305 305 305 305 305 304 303 303 303 303 303 303 304 304 304 304
345 344 344 343 342 342 342 341 341 341 342 341 342 342 342 342 341 340 339 338 338 337 336 335 335 334 333 332 332 331 331 331 330 329 329 330 330 330 330 329 327 325 324 321 319 317 314 310 309 310 310 309 310 309 309 309 308 307 307 306 306 305 305 304 305 305 305 305 305 305 305 305 305 305 305 304 304 304 304 304 304 304 304 304 304
345 344 344 343 343 343 342 342 341 341 341 341 342 342 342 342 341 339 339 338 337 336 336 335 334 333 332 331 331 331 332 332 331 330 330 329 329 328 328 327 326 325 322 319 317 317 315 311 309 309 309 309 309 308 308 308 307 307 306 306 305 305 305 304 305 305 305 305 306 306 306 305 306 306 306 305 304 305 305 305 304 304 305 305 305
345 345 344 344 343 343 342 342 342 341 341 341 342 342 342 342 341 340 339 338 337 336 335 334 334 333 332 331 330 330 331 331 330 330 329 328 327 326 326 324 323 323 321 317 316 317 316 313 310 309 308 309 308 308 308 307 306 306 306 305 305 304 304 304 305 305 305 305 306 306 306 306 306 306 306 305 305 305 305 305 305 305 304 304 304
345 345 345 344 343 343 343 342 342 341 341 341 342 342 342 342 341 340 339 338 337 335 335 334 333 332 332 331 330 330 330 329 329 328 328 326 325 325 324 322 321 320 318 316 315 316 316 315 313 310 309 309 309 309 307 305 306 306 305 305 305 305 305 305 305 305 305 306 306 306 306 306 306 306 306 306 306 305 305 305 305 304 304 303 303
345 345 344 344 344 343 342 342 341 342 341 341 341 342 342 342 341 340 338 338 336 335 334 334 333 332 331 331 330 330 329 329 328 328 327 326 325 324 322 320 319 318 316 314 314 315 314 315 314 312 311 311 310 308 305 304 305 305 305 305 305 305 305 305 305 305 305 306 307 307 307 306 306 306 306 306 305 305 306 306 305 303 303 303 302
346 345 345 344 344 343 343 342 342 341 341 341 341 341 341 341 341 339 338 337 336 335 334 333 332 332 331 330 330 330 329 329 328 328 327 326 325 323 320 318 317 315 313 313 314 314 314 315 315 313 311 310 309 307 305 304 305 305 305 305 304 304 305 306 306 306 306 306 307 307 307 307 306 306 305 305 305 306 307 306 303 302 302 302 302
345 345 345 344 344 343 343 342 342 341 341 340 340 340 340 340 340 339 338 337 336 335 334 333 332 332 331 330 330 329 329 328 327 327 326 325 325 322 318 316 314 312 312 312 313 314 314 314 314 312 310 308 308 307 306 305 305 305 305 305 304 304 305 306 306 306 306 307 306 307 307 306 305 305 305 305 307 307 306 304 302 302 302 302 302
346 345 345 344 344 343 342 342 341 341 341 340 340 340 340 340 340 339 337 336 335 334 333 333 332 331 331 330 329 328 328 327 326 325 325 324 324 322 318 315 312 310 311 313 313 313 312 311 311 310 308 307 307 307 306 306 306 305 305 306 306 305 306 307 306 306 307 307 306 307 306 305 305 305 305 306 307 306 304 302 302 302 302 302 302
346 345 345 344 344 343 342 342 341 341 341 340 340 339 340 340 339 338 337 336 335 334 333 333 332 331 330 329 329 328 327 325 324 324 323 322 322 321 318 315 311 310 311 312 312 312 310 309 309 309 308 307 307 307 306 306 306 306 306 307 307 306 306 306 306 306 307 308 307 306 305 305 305 305 306 307 306 304 303 302 302 302 302 302 301
347 345 345 344 344 343 342 342 341 341 341 340 340 339 339 340 340 338 337 336 335 334 333 332 331 331 330 329 328 327 325 324 323 322 322 321 320 318 316 313 311 310 310 311 312 311 309 308 308 309 308 308 307 307 306 306 306 306 307 307 306 306 306 306 305 306 308 308 307 306 305 305 306 306 306 306 304 303 303 302 302 302 302 301 301
347 346 345 344 344 343 342 342 342 341 341 340 340 339 339 339 339 339 337 336 335 333 332 332 331 330 330 328 327 325 324 322 322 321 321 320 318 315 313 311 310 310 311 311 312 310 308 307 308 308 308 308 308 307 307 307 307 306 307 307 307 306 307 306 306 307 308 307 306 305 305 306 306 306 306 304 303 303 303 302 302 302 301 301 301
347 346 345 344 344 343 343 342 342 341 341 341 340 340 339 339 339 339 337 336 335 333 332 331 330 330 329 327 326 324 322 321 321 320 319 318 315 313 312 311 310 310 311 310 309 308 307 307 307 307 308 308 308 307 308 307 307 307 307 307 307 307 307 307 308 307 306 305 305 305 306 306 306 306 305 304 304 303 302 303 303 302 301 301 301
347 346 345 345 344 343 343 342 342 341 341 340 341 340 339 338 339 338 337 335 335 333 332 331 330 329 328 327 326 323 321 320 320 319 318 316 314 313 311 311 310 310 310 308 307 307 308 307 307 307 308 307 307 307 308 307 307 307 307 307 307 306 307 307 306 305 305 305 306 306 307 306 305 305 304 304 304 303 302 303 303 302 302 301 302
347 347 345 345 344 343 343 343 342 342 341 341 341 340 339 338 338 338 336 335 334 333 331 330 329 329 328 327 325 322 320 319 319 319 318 316 314 312 311 311 310 309 309 307 307 308 309 307 307 307 308 308 307 307 308 308 307 307 307 306 306 305 305 305 304 304 304 305 306 307 306 306 305 304 305 304 303 303 303 303 303 302 302 301 301
347 347 346 345 344 344 343 343 342 342 342 341 341 340 340 339 338 337 335 334 333 332 331 330 329 328 326 326 324 322 320 319 318 317 317 315 313 312 310 310 309 308 308 307 307 308 309 307 307 308 308 308 307 308 308 308 307 307 307 306 304 303 303 304 304 304 304 304 306 307 306 305 304 304 304 304 303 303 303 303 302 303 302 302 302
347 347 346 345 344 344 343 343 343 342 342 341 341 341 340 339 337 336 335 333 332 331 330 329 328 327 326 325 324 322 319 318 317 316 315 314 313 311 310 309 308 307 307 306 307 307 308 307 307 308 308 308 307 308 308 308 307 307 307 305 302 301 301 303 303 303 303 303 305 306 305 305 305 304 303 303 303 303 303 303 303 303 302 302 302
347 347 346 345 344 344 343 343 343 342 342 342 341 341 340 339 337 336 334 332 331 330 329 327 326 325 325 323 322 321 319 318 317 316 314 313 312 311 309 308 307 306 306 306 306 306 307 306 307 307 308 308 308 307 308 307 307 307 306 304 302 300 299 301 303 303 303 303 305 306 305 305 305 304 303 303 304 304 303 303 304 303 302 302 302
Wind_Speed
20 19 20 18 16 16 15 11 9 9 9 9 11 14 13 11 11 11 9 8 10 12 14 18 19 15 12 13 12 11 14 14 12 11 11 9 8 7 6 5 4 4 2 2 3 5 6 7 7 7 7 7 7 7 6 7 8 9 10 11 12 13 13 14 15 14 14 13 12 11 12 12 13 13 13 13 13 13 13 12 13 13 13 13 12
19 20 20 18 17 17 16 13 10 10 11 10 10 13 13 10 10 11 10 8 12 15 16 21 21 17 15 13 11 13 14 14 12 11 10 9 7 6 5 5 5 4 3 4 5 6 8 8 8 8 7 7 7 6 6 7 8 9 9 10 11 12 13 13 13 12 11 10 10 10 11 12 12 12 12 12 12 12 12 12 12 12 12 12 12
17 21 20 18 18 18 17 14 12 12 12 12 11 13 13 11 10 11 11 13 14 13 14 21 23 20 16 12 12 14 15 14 13 11 9 9 8 7 6 6 5 5 5 5 5 7 8 8 8 8 8 7 7 6 6 7 8 8 9 9 10 10 11 11 10 10 9 9 8 9 9 10 12 12 12 12 12 12 12 12 12 12 12 11 11
17 19 19 18 20 19 19 17 14 14 14 14 12 13 14 12 11 11 13 13 10 11 18 20 20 18 15 13 14 15 16 17 14 10 9 9 9 8 7 6 5 5 6 6 6 7 8 8 8 9 8 8 7 7 7 8 8 8 9 9 10 10 9 8 7 7 7 8 8 8 8 10 11 11 12 12 12 12 11 11 11 11 11 11 11
18 18 17 17 20 19 18 16 14 16 14 13 13 13 14 14 14 14 12 11 9 13 17 17 16 16 15 14 14 15 16 17 14 12 10 9 9 8 7 6 5 5 6 6 5 6 8 9 9 9 8 7 7 6 7 7 8 8 9 9 10 8 7 6 5 6 6 6 8 9 8 9 10 11 12 12 12 12 11 11 11 11 11 11 11
19 18 16 16 18 17 17 15 12 15 14 12 14 15 14 14 13 12 9 10 11 14 15 15 15 15 15 15 14 15 15 16 15 14 12 11 11 8 7 6 5 6 6 5 5 5 8 10 9 9 8 7 5 5 5 5 6 6 7 7 7 6 6 5 5 5 5 6 7 8 9 9 10 11 11 12 12 12 11 11 11 11 11 11 11
20 17 17 16 17 17 18 17 13 14 14 12 14 15 15 13 11 10 10 12 12 14 14 14 15 15 15 14 15 16 15 15 15 16 15 14 14 10 7 7 6 6 5 4 5 6 8 10 10 9 8 7 6 5 4 3 3 3 3 4 4 5 5 4 4 5 5 6 7 8 8 10 11 11 11 12 12 11 11 11 11 11 11 11 11
22 18 19 18 18 18 17 18 15 15 15 15 15 15 16 15 11 10 11 12 13 14 13 15 15 15 15 13 15 16 15 16 15 15 16 15 16 13 10 9 8 6 6 5 5 7 8 10 11 9 7 7 7 6 5 4 3 2 2 1 1 2 3 3 4 4 5 6 7 8 9 10 11 11 11 11 11 11 11 10 10 10 11 11 11
23 18 20 20 18 19 17 17 17 16 17 17 17 16 17 17 13 12 12 11 12 12 13 14 15 15 16 15 16 17 15 15 14 13 15 16 17 16 13 11 9 7 7 6 5 6 7 9 10 9 7 7 7 7 6 5 4 3 2 1 1 1 2 3 3 4 5 6 7 8 9 10 10 10 10 10 10 10 10 10 10 10 10 11 11
25 19 21 22 19 19 17 17 18 18 19 19 18 17 18 18 16 14 14 13 12 11 12 14 15 16 17 18 19 18 15 12 13 12 12 16 19 17 15 14 13 10 8 7 7 6 6 8 9 9 8 8 8 8 7 6 5 5 4 2 2 1 2 2 3 4 4 6 7 8 9 10 9 9 9 9 9 9 9 9 9 10 10 10 10
26 21 22 23 20 19 18 18 19 20 21 19 19 21 20 18 17 16 14 12 11 11 13 14 15 16 17 18 19 18 15 10 11 13 12 15 18 17 15 15 15 13 10 8 9 8 6 6 7 8 9 9 9 9 8 8 7 7 6 4 4 3 2 2 3 4 4 6 7 8 9 9 8 8 8 8 8 9 9 9 9 10 10 10 10
27 22 23 25 21 19 20 20 21 21 22 21 21 22 21 19 17 17 14 12 11 12 14 16 16 16 15 16 15 14 13 11 11 11 12 16 16 15 13 13 13 12 11 10 11 11 9 7 7 8 9 9 9 10 8 8 8 8 7 6 5 3 1 2 2 3 4 6 7 8 8 8 7 8 8 8 8 8 8 9 9 9 9 10 10
28 24 24 27 23 20 21 22 23 22 22 23 23 21 20 18 16 16 15 14 15 14 15 18 18 14 11 11 11 12 11 12 12 10 11 15 16 14 12 12 11 11 13 14 14 13 11 9 7 8 10 10 9 9 8 8 8 8 7 6 5 3 2 2 3 4 5 7 7 7 7 7 7 7 7 7 8 8 8 8 9 9 9 9 9
29 26 26 28 26 22 22 23 24 24 22 22 23 21 19 18 17 17 16 15 17 18 19 19 17 15 13 8 6 9 11 12 14 12 11 14 16 15 15 14 13 13 15 15 15 14 13 12 9 9 11 12 10 10 9 8 9 9 7 6 6 4 3 4 5 6 7 8 8 7 7 6 6 6 6 7 7 7 8 8 9 9 9 9 9
29 28 27 28 28 25 23 22 24 24 23 22 21 20 19 19 19 19 17 16 17 20 22 20 17 17 13 6 3 5 6 10 15 16 13 14 17 17 15 16 15 15 16 16 15 15 14 13 11 11 12 13 12 11 10 9 9 10 9 7 7 5 5 6 7 8 9 9 8 7 6 6 6 6 6 6 7 7 7 8 8 8 8 9 9
30 29 28 28 27 26 24 23 24 25 24 24 23 22 22 21 20 20 19 19 18 21 23 21 20 19 10 3 3 3 2 8 14 20 18 14 16 18 16 17 17 17 18 18 17 17 15 14 13 13 14 14 14 14 13 11 10 11 10 9 8 7 6 7 9 11 11 10 9 7 6 6 6 6 6 6 7 7 7 8 8 8 8 9 9
31 31 30 29 27 27 26 24 24 25 24 24 24 24 24 23 21 21 22 22 22 22 24 22 22 23 16 7 4 2 3 6 8 15 21 18 17 19 19 19 18 18 20 20 20 19 17 16 16 15 15 14 14 14 13 12 13 13 13 12 10 8 7 8 10 12 12 11 9 6 6 6 6 7 6 6 7 7 8 8 8 8 8 8 9
31 32 31 30 28 27 27 25 24 25 25 24 25 25 25 24 22 22 22 24 24 23 25 25 23 24 21 12 8 4 3 7 5 4 15 20 18 19 21 21 19 19 22 22 22 21 19 18 19 19 17 15 15 14 12 11 13 15 16 14 11 9 9 9 11 13 13 11 8 6 6 6 6 7 5 6 7 7 8 9 8 8 8 9 9
32 32 32 31 30 28 27 26 25 26 26 25 26 26 26 25 23 23 22 24 26 25 26 27 25 24 23 18 12 7 4 7 7 2 5 12 17 19 21 22 20 19 22 25 23 20 19 19 20 22 21 18 17 16 15 13 12 15 16 15 13 11 10 10 12 13 13 10 8 7 6 6 7 6 5 6 7 8 9 9 7 7 8 9 9
32 32 33 31 30 29 28 28 26 26 27 27 27 27 26 26 24 24 24 25 27 27 27 28 27 25 25 23 19 14 10 9 11 9 5 3 10 14 18 21 23 22 21 24 24 20 18 21 22 24 24 22 19 17 17 16 13 14 16 16 15 13 12 12 12 14 13 10 8 7 6 6 7 6 5 6 8 9 9 8 7 7 8 9 9
33 32 33 32 31 30 29 29 28 27 28 28 28 27 26 27 27 26 27 27 27 27 27 30 31 28 25 26 24 20 16 13 13 12 8 5 5 6 12 16 20 24 24 22 24 21 18 22 25 25 25 24 21 17 17 18 16 16 17 17 16 14 13 13 13 14 13 9 7 7 7 7 7 6 5 7 8 9 9 7 7 8 8 9 9
34 33 33 33 33 32 30 30 31 29 28 29 29 28 27 28 28 28 29 28 28 28 26 28 32 32 28 26 25 20 16 14 14 13 11 9 6 6 12 14 14 22 27 25 25 23 21 23 26 26 25 23 20 18 18 19 17 17 17 18 18 15 13 12 12 14 12 9 7 7 7 7 7 6 6 8 9 9 8 7 7 8 8 8 8
35 34 34 34 34 34 32 31 32 31 29 29 29 29 28 28 28 29 30 29 28 28 26 26 29 32 30 28 26 24 19 16 16 17 12 9 6 5 13 18 17 22 27 28 28 25 22 23 27 28 24 21 19 18 19 19 17 16 17 18 18 15 13 12 12 14 11 8 7 7 7 7 7 7 8 9 9 8 8 7 7 8 8 8 8
35 36 36 35 35 35 34 33 33 33 32 29 29 30 29 29 29 30 30 30 29 28 27 27 27 30 31 29 28 27 25 22 21 20 17 15 11 6 10 16 16 19 24 26 27 28 24 22 26 29 24 19 19 19 20 19 19 17 17 18 17 14 13 12 13 13 11 8 7 7 7 8 8 8 9 9 8 8 8 8 8 8 8 8 8
37 38 39 38 36 35 35 35 34 34 34 32 29 30 30 30 30 31 31 31 30 29 30 29 28 29 30 30 28 26 26 25 22 20 19 18 15 10 11 14 13 15 19 21 24 27 27 25 24 27 26 20 18 20 21 20 20 19 18 18 17 14 13 13 14 13 10 7 7 7 8 8 9 9 9 9 8 8 8 8 8 8 8 8 9
40 40 40 39 38 37 36 36 34 32 32 33 31 30 31 31 31 32 32 32 32 31 31 30 29 29 28 28 28 27 26 24 21 19 19 17 16 12 10 11 10 10 13 18 22 22 24 27 26 26 26 23 19 21 23 22 20 20 19 18 16 14 13 14 14 12 8 6 6 7 7 8 8 9 9 8 8 8 8 8 8 8 8 9 10
40 40 39 39 39 38 36 36 35 33 31 32 31 31 32 32 32 32 32 32 33 33 32 30 30 29 28 27 27 26 26 24 21 19 18 17 16 15 11 7 4 2 6 13 17 20 24 26 26 27 25 21 21 22 23 22 20 20 19 17 15 13 13 13 13 10 5 5 6 7 8 8 8 8 8 8 8 8 8 8 8 9 9 10 11
38 38 39 39 40 38 37 36 36 34 32 31 32 32 31 32 33 31 31 32 33 33 32 31 30 30 29 28 27 27 26 26 24 21 20 18 17 16 14 12 7 2 2 5 8 15 23 22 22 27 25 21 22 23 23 21 19 19 18 16 14 13 13 13 12 8 5 5 6 8 9 9 8 8 8 8 8 8 8 9 9 9 10 11 13
38 38 39 40 40 39 38 37 36 36 33 32 33 34 32 32 33 32 32 32 33 33 32 31 31 30 29 28 28 27 26 25 25 24 22 21 20 17 15 14 12 6 3 4 5 11 21 23 23 26 25 24 25 25 24 22 20 19 17 15 14 14 13 13 11 8 6 6 6 7 9 9 9 9 8 8 8 8 9 9 10 10 11 12 13
38 38 39 40 40 40 38 37 36 37 36 33 32 34 34 32 33 33 32 33 33 33 32 32 31 29 29 28 27 26 25 24 24 23 22 22 22 20 17 16 15 12 8 5 6 12 19 24 25 24 26 27 27 27 26 23 21 18 16 14 15 14 13 12 11 9 8 7 8 8 8 9 10 10 10 10 9 10 10 11 11 11 11 11 13
39 38 38 40 41 40 39 37 37 37 37 35 33 34 35 34 33 33 32 33 34 34 33 32 31 29 28 26 25 24 22 22 22 22 21 21 22 21 20 19 18 16 13 7 5 8 12 22 26 25 27 29 28 27 25 21 20 17 15 14 13 12 12 11 10 9 10 10 10 11 10 9 10 10 11 11 12 12 12 13 13 12 12 13 15
40 39 39 40 41 41 40 37 37 37 37 37 35 34 35 35 35 34 34 34 34 34 33 32 31 29 28 26 25 23 22 22 24 24 22 21 21 21 21 21 20 17 15 10 7 4 5 17 26 25 27 30 28 27 24 20 18 16 15 13 11 11 12 11 8 8 10 10 12 13 12 11 10 11 11 12 13 13 13 14 14 15 15 17 18
41 40 40 40 41 41 40 38 37 37 37 37 36 35 35 35 35 35 35 35 35 34 33 32 30 29 28 27 26 24 24 24 25 25 24 22 22 22 21 21 21 18 16 13 10 5 3 10 20 24 27 28 27 25 22 19 17 15 14 12 11 11 11 10 8 8 9 10 12 13 12 12 12 12 12 13 13 13 15 16 17 17 18 19 21
41 42 42 41 40 40 40 39 38 37 37 38 37 36 36 35 35 35 36 36 35 34 33 32 31 30 29 28 27 25 24 24 24 25 25 24 23 23 22 23 22 20 19 16 12 8 7 10 17 22 25 26 25 23 21 19 16 14 14 12 12 11 10 10 10 9 9 10 11 12 12 12 12 12 13 14 14 15 17 19 20 20 21 22 23
41 42 42 41 40 39 39 40 39 37 37 38 38 37 37 36 36 36 36 37 36 35 34 34 33 32 30 28 27 25 25 25 25 25 25 25 24 24 24 24 23 21 19 17 14 11 11 12 16 22 24 23 22 21 19 17 14 13 14 13 12 11 10 12 13 11 10 11 12 13 13 13 13 13 13 14 14 16 19 20 21 22 24 25 26
41 41 41 41 40 39 40 40 40 39 38 38 38 38 38 38 37 37 36 36 36 37 36 36 35 33 31 29 27 26 26 27 28 27 26 24 24 24 24 23 22 20 18 17 16 14 14 16 18 21 23 22 20 17 16 15 14 14 14 12 10 11 12 13 14 13 12 13 13 13 13 14 14 14 14 14 14 17 20 21 22 24 25 26 26
41 41 41 41 40 40 42 42 41 40 39 38 38 39 39 38 38 37 37 37 36 37 37 37 36 34 32 31 29 27 26 27 27 27 26 25 24 24 22 21 20 19 18 17 17 17 17 18 19 20 21 21 19 15 14 15 16 16 15 13 11 11 12 12 12 13 14 14 14 14 15 15 15 15 14 13 15 19 21 22 23 24 25 24 24
41 41 41 42 42 42 43 43 41 41 40 39 39 39 39 39 38 37 37 38 37 37 37 37 36 35 33 32 31 30 29 27 26 25 25 25 24 22 21 20 18 18 19 17 17 19 19 19 20 20 20 20 17 15 15 15 16 18 18 15 13 12 12 12 13 14 15 15 15 15 15 15 14 14 12 12 16 20 21 22 22 23 22 21 22
41 41 41 42 43 44 44 43 42 42 41 39 39 39 39 39 39 38 38 38 38 37 37 36 35 35 34 33 32 32 32 31 29 26 25 25 24 22 21 20 18 19 20 19 18 20 20 19 21 20 19 18 16 14 14 12 13 17 18 15 13 11 11 13 14 14 14 14 15 16 16 16 14 11 11 14 17 19 20 20 20 20 21 21 23
42 42 43 43 43 43 43 42 42 42 41 41 41 40 40 40 40 39 38 38 38 37 36 36 35 34 33 33 33 32 32 33 32 30 28 27 25 23 21 21 21 22 22 20 19 20 20 20 21 19 17 18 17 15 14 12 12 14 15 14 12 9 8 9 9 9 10 12 13 13 13 13 10 9 11 14 15 17 18 18 18 20 21 22 24
42 43 44 44 43 41 42 42 41 41 42 43 43 43 41 41 41 40 39 39 39 37 36 35 36 35 34 33 33 31 30 30 30 29 29 29 28 26 24 24 24 23 22 22 21 21 21 19 19 18 17 19 20 18 16 15 13 13 12 10 10 9 8 8 7 6 8 10 9 8 6 7 9 11 12 13 14 15 15 16 19 21 21 21 22
43 43 43 43 42 42 42 42 41 42 44 45 46 45 44 42 41 40 39 39 39 38 36 35 35 35 35 34 32 30 29 28 27 27 28 29 29 28 27 26 26 25 25 24 23 23 23 20 19 19 19 20 21 20 18 16 14 13 10 9 9 8 7 8 8 7 8 8 7 7 7 9 11 11 11 13 13 11 13 17 20 19 18 20 21
42 42 42 42 43 44 44 43 42 43 45 47 47 46 45 45 44 41 40 39 39 39 37 35 35 35 34 34 31 30 28 27 27 27 28 28 28 27 27 27 27 27 27 27 26 24 23 21 20 21 22 23 22 21 19 17 15 13 11 10 9 8 6 6 6 7 7 8 9 11 12 10 9 10 12 11 7 8 13 18 17 16 17 20 20
42 42 42 43 43 44 44 43 43 44 46 47 47 46 46 47 46 44 41 40 38 38 38 37 36 35 34 32 31 29 29 28 28 28 28 27 27 26 27 27 27 27 27 27 27 25 24 23 22 22 24 24 23 22 21 20 18 15 13 12 10 8 7 8 9 9 8 9 11 13 14 11 10 12 13 7 6 11 17 17 14 14 18 20 20
42 42 42 44 44 44 44 43 44 46 46 47 47 47 46 47 48 46 42 41 40 39 39 38 37 36 35 33 31 30 29 29 29 29 29 28 27 27 27 27 26 26 25 25 25 25 24 25 24 24 24 23 23 23 23 20 19 18 16 13 10 8 9 10 11 10 9 10 12 14 15 13 11 12 10 6 9 16 18 15 11 14 19 21 22
42 42 42 43 44 44 44 44 45 46 47 47 48 49 47 47 50 48 43 42 41 40 39 39 38 37 37 36 34 32 31 31 31 31 31 30 29 28 28 28 27 26 25 24 23 22 23 24 24 23 23 22 21 22 21 20 20 21 18 14 11 10 9 10 10 10 10 10 12 13 13 10 8 7 7 9 15 18 18 14 11 13 20 22 22
42 43 43 44 44 45 45 45 45 44 46 47 48 49 49 48 51 49 44 42 42 40 40 40 39 39 39 38 36 34 33 34 33 33 33 32 31 30 29 29 28 27 26 24 23 22 23 23 21 19 20 21 19 19 20 20 21 20 17 15 13 11 9 8 10 11 9 7 8 9 8 5 4 5 9 14 17 18 17 13 10 14 20 22 22
42 43 43 44 44 45 46 46 44 43 45 46 47 49 49 49 51 50 44 42 42 41 40 40 39 40 40 39 38 36 36 36 35 35 34 33 32 32 31 29 28 27 26 24 22 21 21 22 20 16 16 18 17 17 19 20 20 18 16 14 12 10 9 8 9 10 8 6 5 4 5 3 3 8 14 17 16 17 17 11 8 14 23 24 23
40 41 42 43 44 45 46 45 44 44 45 46 47 49 49 50 51 49 44 42 41 40 41 40 39 39 39 40 39 37 37 37 36 36 35 35 34 33 32 30 28 27 26 24 23 20 19 20 19 16 15 16 16 16 18 19 19 18 16 14 11 10 9 7 7 8 8 7 5 3 4 3 4 10 16 17 16 17 15 9 8 17 25 24 22
40 42 42 42 43 45 46 47 47 46 45 46 48 49 49 51 53 50 44 40 39 39 39 39 39 39 39 40 40 39 38 38 38 37 37 36 36 35 34 31 29 28 27 26 24 22 19 19 19 17 16 16 16 16 17 17 17 16 15 13 11 11 10 9 7 7 9 9 7 4 3 4 7 11 14 15 16 17 13 9 12 20 24 22 22
41 41 41 41 41 43 45 48 49 47 45 45 47 48 49 51 53 50 44 40 38 38 37 37 37 38 39 40 40 40 39 39 38 38 38 38 38 37 36 33 30 30 31 30 28 27 24 22 21 19 18 17 17 17 17 16 16 16 14 13 12 12 12 12 10 6 6 7 6 4 3 7 11 13 12 10 10 13 13 13 16 22 23 22 23
Wind_Direction
195 196 192 196 202 203 206 209 202 196 200 195 197 206 203 199 207 207 208 224 234 235 228 222 219 213 198 186 187 188 179 177 178 174 174 169 161 159 165 179 190 186 175 132 126 129 123 120 119 119 120 116 116 116 108 105 106 106 104 102 97 90 82 73 66 59 53 46 40 35 31 29 26 23 22 21 21 21 22 20 19 19 19 19 18
195 193 188 194 199 202 207 211 201 193 201 193 189 201 195 191 206 210 215 238 250 251 236 219 209 195 184 179 180 184 180 181 182 183 180 173 170 170 174 190 194 186 173 152 141 136 132 133 133 132 131 122 121 123 119 114 111 111 106 101 95 85 75 65 56 47 40 33 29 30 28 26 24 22 21 20 17 16 15 15 14 13 12 12 12
194 190 190 195 198 205 210 211 204 196 202 200 194 198 195 199 212 221 231 243 249 237 204 191 185 177 178 179 175 177 181 185 187 188 179 170 174 177 178 187 194 188 177 166 152 143 141 142 141 139 138 132 130 128 122 117 112 110 103 95 87 78 67 54 43 36 31 27 24 24 24 22 21 20 19 17 17 15 14 12 11 9 9 8 7
194 193 199 201 201 209 212 214 212 204 208 211 205 200 204 212 221 238 243 235 226 187 170 169 169 169 174 174 170 174 179 182 184 182 174 173 179 181 179 180 189 194 187 177 161 148 147 148 148 147 146 143 137 131 123 116 111 104 96 87 77 68 57 43 35 32 29 29 26 20 18 17 16 16 15 14 13 12 11 9 8 7 7 6 5
195 200 208 203 201 208 209 209 207 203 208 209 200 198 211 217 220 236 232 209 189 168 166 164 164 168 170 170 171 174 178 181 181 175 175 187 190 185 177 173 177 184 183 178 170 156 153 156 157 156 154 153 146 138 128 116 108 98 89 79 69 62 51 40 33 28 24 23 22 18 14 11 9 9 8 9 9 8 7 5 5 6 5 5 4
200 206 210 200 200 207 205 200 193 193 196 189 189 200 213 208 211 223 199 176 174 168 167 163 164 168 170 173 175 174 177 182 179 173 184 203 205 195 182 178 169 169 172 174 181 170 162 164 164 164 162 161 159 149 135 116 102 90 82 74 65 59 51 43 30 23 18 13 14 14 12 7 3 3 2 3 5 6 5 5 5 5 5 4 3
204 209 206 197 200 205 203 202 194 190 192 188 195 209 212 198 202 210 172 155 162 164 168 166 166 171 173 175 177 176 178 183 180 178 191 211 214 205 194 191 178 173 181 189 195 184 172 170 169 172 171 170 171 167 158 140 121 96 80 72 52 40 35 22 11 14 11 4 4 6 5 2 0 359 359 0 3 5 6 7 6 6 6 5 4
204 208 203 198 202 202 201 201 195 192 194 195 202 210 207 198 205 211 178 157 158 162 168 170 168 172 176 180 182 181 180 184 188 190 198 213 215 210 207 199 188 192 197 192 196 189 180 177 180 186 186 181 179 179 179 175 169 156 124 99 36 10 3 351 353 0 4 2 359 359 356 356 358 357 358 0 3 5 5 8 9 8 6 4 2
202 207 203 200 202 202 202 197 192 194 195 195 202 204 200 201 207 211 197 179 171 170 174 174 173 175 177 182 185 185 185 189 195 197 204 214 215 212 212 201 196 207 205 198 196 194 191 189 197 207 203 193 190 193 191 186 188 182 170 154 151 302 317 330 343 346 352 357 356 354 351 353 356 355 358 1 3 5 7 8 9 7 5 3 1
201 205 204 200 201 202 201 194 192 195 193 195 205 203 197 201 205 205 205 200 190 186 186 180 176 177 178 182 185 186 189 197 202 203 210 214 212 212 211 204 203 205 207 211 202 201 209 204 213 221 212 202 197 199 200 201 203 201 205 200 199 249 289 311 332 342 343 349 351 348 348 352 354 353 358 2 3 6 7 9 7 5 4 1 0
198 204 204 197 199 203 197 192 193 194 191 192 204 205 199 199 205 205 205 204 201 200 195 184 179 180 179 180 183 186 189 192 200 203 200 194 196 203 204 202 203 198 201 218 215 217 232 229 230 227 217 211 204 202 205 212 209 203 210 215 226 247 271 303 323 338 338 340 343 344 347 350 350 352 359 1 3 7 6 6 5 3 2 360 359
197 204 205 195 196 200 194 193 194 193 189 190 200 206 204 205 210 210 203 196 191 193 192 183 175 174 175 177 179 185 191 194 196 193 186 183 185 192 195 196 201 202 208 222 228 231 234 235 243 234 216 208 209 212 215 220 213 200 204 212 230 258 290 300 313 328 332 334 337 341 345 346 346 353 360 1 3 6 3 2 3 2 359 357 357
198 205 204 195 194 194 191 193 195 195 193 194 202 208 208 209 212 209 201 191 180 179 187 179 165 159 161 170 179 185 192 200 202 195 191 192 193 197 200 199 203 216 223 223 226 233 233 228 241 236 211 200 203 209 213 219 215 204 200 208 227 254 301 315 320 324 327 327 332 340 341 341 346 353 357 360 2 3 0 359 0 358 355 355 355
199 204 203 196 195 194 193 195 197 200 199 198 205 210 208 207 208 205 200 197 186 178 182 178 164 160 159 153 170 193 200 206 205 203 201 204 207 210 212 209 207 214 223 225 221 227 233 225 230 233 217 209 208 208 211 215 211 205 202 211 226 239 279 322 330 326 325 324 329 337 338 338 346 352 353 355 1 358 353 356 356 353 351 353 352
198 202 202 199 198 196 198 200 199 201 199 196 202 207 206 205 207 208 199 192 187 181 184 185 172 160 154 150 170 192 219 226 218 214 210 210 215 217 215 215 214 208 213 224 223 225 230 227 231 235 228 225 221 215 217 220 218 211 209 218 230 240 270 313 329 328 326 323 326 333 332 336 343 346 348 353 356 351 347 351 351 348 349 349 349
197 200 202 201 201 200 201 203 200 201 200 195 197 202 203 204 206 208 198 185 183 184 189 191 180 168 153 121 149 149 234 233 224 221 217 216 220 221 218 214 212 207 209 221 227 229 231 230 238 242 239 236 228 222 222 226 228 221 216 223 234 244 266 303 325 327 326 322 321 326 324 332 339 334 338 349 349 342 340 344 344 345 347 345 345
198 199 201 202 204 202 201 203 202 201 201 199 198 201 204 207 207 207 202 194 188 187 190 192 188 184 176 149 145 169 236 205 208 222 222 222 223 221 217 211 211 212 213 220 225 228 231 234 238 240 239 233 224 224 225 227 231 226 220 225 236 247 265 297 318 320 321 318 314 316 316 323 330 322 329 343 340 333 332 336 340 342 342 340 340
199 200 202 204 205 204 202 203 204 202 202 202 201 202 207 211 209 207 207 204 198 191 191 193 193 194 192 190 185 184 192 171 156 226 224 225 228 221 215 212 213 216 218 221 222 223 227 231 233 232 229 221 217 222 225 226 230 226 223 228 239 248 262 290 310 314 317 316 310 309 308 312 315 313 324 336 330 324 324 330 338 340 337 335 335
200 201 204 206 207 206 205 204 205 204 203 203 203 204 208 211 211 210 209 207 203 197 194 195 197 202 207 210 202 202 214 180 169 160 203 224 230 225 219 216 215 218 221 222 221 223 224 224 226 226 222 218 218 224 228 227 229 229 228 232 239 246 261 287 304 311 315 316 308 301 299 304 303 302 319 329 321 315 320 330 336 335 333 330 329
201 202 204 207 208 208 207 204 204 206 204 204 205 205 207 209 210 210 208 208 206 202 199 197 200 205 209 213 216 226 231 201 190 184 150 199 225 225 224 219 216 219 223 224 222 224 226 224 222 219 218 220 223 229 232 228 227 233 234 235 240 248 266 286 301 310 315 315 308 295 287 291 291 293 315 322 312 310 318 328 331 329 329 325 323
202 203 205 207 209 211 209 205 204 206 206 206 206 205 207 207 207 207 206 208 208 205 203 201 203 205 206 211 221 229 229 222 212 196 177 179 204 221 220 212 215 221 224 224 222 224 227 226 223 218 218 222 226 232 233 226 224 231 236 238 241 249 265 281 298 311 315 315 311 293 279 279 281 285 307 311 304 307 315 322 325 325 323 320 321
203 204 206 208 209 212 212 207 204 206 207 206 205 204 207 209 207 206 206 207 208 208 211 210 208 208 207 209 215 219 218 222 221 207 192 188 192 209 207 198 205 220 223 222 220 221 225 227 223 220 220 223 227 230 228 225 225 229 235 238 238 246 259 273 295 310 314 317 314 296 281 279 279 281 293 297 298 304 313 317 319 318 315 317 320
204 206 208 209 210 212 214 210 206 205 206 206 205 204 206 209 208 206 206 208 210 212 216 217 213 211 211 212 214 214 211 211 216 215 208 196 191 198 206 204 205 216 222 223 221 220 222 224 222 221 222 224 226 224 223 225 226 229 235 235 236 243 255 271 297 310 313 320 318 299 288 285 283 284 287 291 298 304 309 311 312 312 312 314 315
206 208 209 210 211 211 212 212 209 207 206 206 206 205 206 207 207 205 205 207 210 212 212 213 213 212 212 215 217 219 218 218 218 218 219 216 207 194 203 207 211 223 227 224 220 220 223 222 220 221 221 223 225 219 218 224 227 230 233 234 235 243 257 279 299 306 311 323 320 301 293 292 289 290 289 293 300 301 304 307 307 307 307 307 313
207 209 210 210 211 211 211 211 211 210 208 207 206 205 206 206 206 206 205 206 207 208 209 210 212 212 213 215 216 218 221 223 225 225 226 223 215 211 211 206 209 223 227 225 221 221 225 226 222 219 217 221 225 219 217 223 228 232 232 232 236 245 262 283 295 298 308 322 319 304 297 296 294 292 291 293 296 297 300 302 301 301 301 306 317
206 208 209 209 211 212 212 210 210 212 211 209 207 207 207 206 207 207 207 207 207 208 210 211 212 213 213 213 214 216 219 221 226 227 224 220 214 215 216 210 210 207 207 216 217 215 220 225 225 220 216 221 227 221 219 222 228 233 231 230 234 248 267 282 288 291 306 329 328 320 311 305 299 293 291 291 292 294 297 298 298 297 301 310 318
207 208 208 209 210 212 214 212 210 211 213 211 208 207 207 206 206 207 208 208 208 209 211 212 213 213 214 215 215 216 219 219 222 224 223 224 221 218 216 214 229 207 182 202 210 212 217 221 223 219 215 220 224 219 218 222 228 229 227 228 238 253 269 279 282 285 306 332 336 339 332 320 309 298 292 291 291 294 297 299 299 300 306 313 315
208 209 209 209 210 211 213 213 211 211 213 213 211 208 206 205 205 207 208 208 208 208 211 212 213 214 215 217 218 219 221 222 224 226 226 230 232 229 224 214 211 224 199 201 211 220 221 217 214 216 217 219 219 217 217 220 224 224 227 236 248 258 271 278 278 280 301 312 323 340 341 331 320 307 298 295 294 297 301 301 303 306 310 312 312
209 209 209 210 211 211 212 212 212 212 212 214 213 211 209 206 205 206 207 208 207 208 210 211 213 215 216 218 220 221 223 224 227 229 228 232 233 230 227 219 210 196 182 208 223 226 224 218 210 209 214 217 216 214 215 218 221 225 232 244 257 265 273 279 278 276 290 295 302 325 336 334 326 314 305 301 299 301 303 304 307 310 312 316 317
209 208 209 209 210 211 211 212 212 212 212 212 213 212 211 208 207 208 209 208 207 207 210 212 213 214 216 218 220 222 225 226 228 228 228 231 231 228 229 229 225 215 203 206 223 227 225 219 213 208 208 212 215 212 212 216 221 227 238 251 264 268 270 280 281 276 282 288 293 302 315 327 328 320 311 304 303 304 305 306 308 309 312 319 322
208 208 208 208 209 210 211 212 212 211 211 212 213 212 211 210 208 208 209 209 207 207 209 212 213 214 216 218 219 221 222 223 223 223 224 226 226 227 231 234 234 231 224 217 217 230 224 212 210 210 207 207 210 208 207 212 219 228 242 254 262 264 269 280 284 279 278 282 288 288 292 308 321 322 314 308 307 307 308 311 311 307 306 309 313
208 208 208 209 209 210 211 212 211 211 210 212 213 213 211 211 209 208 208 208 207 207 209 212 214 215 216 216 217 218 219 219 219 221 222 223 224 228 232 236 238 235 230 223 210 215 217 205 202 202 203 203 203 204 205 208 215 229 245 252 252 255 268 279 280 279 277 276 281 280 280 290 307 319 321 317 314 313 315 318 316 312 307 306 309
207 208 209 210 210 210 210 211 212 211 211 211 212 212 211 210 210 209 208 207 207 208 209 211 213 213 212 212 215 219 221 221 222 224 225 224 226 230 234 237 238 234 228 223 211 186 155 186 190 191 196 197 196 201 208 209 215 229 240 242 241 249 266 274 268 270 273 274 276 275 275 282 295 315 326 323 320 318 319 320 320 318 313 308 308
207 207 209 210 210 210 210 212 212 211 211 211 211 211 211 210 210 209 208 207 206 206 207 208 209 208 209 211 215 220 222 224 226 229 229 225 227 232 232 231 231 229 227 224 214 188 153 158 174 181 189 194 194 200 210 216 222 232 234 230 232 246 263 267 261 266 272 275 278 279 279 282 290 308 324 326 324 323 322 321 320 318 313 310 308
207 208 209 210 210 210 211 212 213 212 211 210 210 210 211 211 210 209 208 208 206 205 205 205 204 204 207 211 216 219 222 225 227 228 228 227 229 229 226 222 221 222 225 226 220 194 165 160 169 174 180 190 197 201 208 219 226 230 227 224 232 246 260 264 262 263 268 275 284 285 281 281 288 298 313 322 324 327 327 324 319 314 311 310 307
207 208 209 210 209 209 211 212 212 212 211 210 209 210 210 211 211 209 208 208 208 207 206 205 204 206 209 212 215 217 219 223 226 227 226 223 221 218 217 217 219 221 223 226 226 209 180 170 175 181 182 187 195 199 206 219 222 220 221 226 237 249 261 265 260 257 266 276 283 284 283 286 287 289 302 313 320 327 326 320 316 314 314 313 311
208 208 208 208 208 208 210 212 212 212 211 210 209 210 210 211 212 211 209 207 208 207 206 206 207 209 211 213 214 214 214 216 219 221 219 215 213 214 216 218 220 224 225 224 224 218 201 186 183 189 192 193 198 205 211 216 214 208 212 224 236 245 253 257 252 253 264 271 274 281 285 285 282 283 295 310 321 325 321 317 317 319 322 324 323
209 208 207 207 208 209 211 213 213 212 211 210 210 210 210 211 211 211 210 208 208 207 207 207 209 211 212 214 215 215 214 214 214 214 213 213 214 215 217 218 218 221 225 224 219 215 212 204 194 193 198 201 207 211 210 213 212 208 211 221 233 240 243 247 249 251 257 264 270 276 282 284 283 285 295 311 321 320 315 315 322 327 332 335 334
209 208 207 207 209 209 211 213 214 213 211 210 211 211 210 210 211 210 209 208 208 208 208 209 210 213 215 216 217 217 218 220 221 220 217 217 218 218 219 217 214 217 221 219 211 206 207 205 198 197 202 207 212 210 206 210 215 218 221 223 229 239 243 247 252 253 256 266 272 276 283 285 283 284 296 310 315 310 307 316 328 335 338 337 336
210 209 208 209 209 209 210 212 214 213 211 210 211 212 211 210 210 209 208 207 207 209 210 211 212 214 216 218 219 220 221 222 225 226 225 223 221 218 217 213 210 213 214 208 201 198 198 198 198 200 201 201 204 205 205 203 200 207 213 216 225 237 235 238 248 254 265 279 282 284 287 283 277 286 301 308 306 300 305 322 337 339 337 336 335
212 211 211 210 209 209 210 212 214 213 211 210 211 211 211 209 207 207 207 206 206 208 209 210 212 214 215 217 218 220 221 221 224 227 227 226 221 215 210 208 208 210 204 197 193 190 188 190 196 198 192 190 193 195 198 203 205 207 212 221 235 239 236 247 259 266 277 285 287 285 284 289 297 301 300 299 298 301 315 336 342 337 336 336 338
213 212 211 210 209 209 210 212 213 212 211 211 212 212 211 208 205 204 205 205 206 207 207 207 209 211 213 215 217 220 222 223 224 224 222 221 219 216 213 210 210 207 199 192 191 190 189 190 194 194 188 189 193 194 197 205 212 218 223 228 227 224 239 260 264 264 271 274 281 286 286 297 306 303 299 300 302 315 336 342 340 338 339 341 341
214 213 211 210 210 210 211 212 212 211 211 212 212 212 212 209 205 203 203 203 205 206 206 206 207 208 210 214 217 219 220 221 221 220 218 216 216 217 217 216 214 212 205 198 195 195 197 199 200 197 194 195 199 202 207 210 210 216 220 214 207 209 227 247 253 260 262 265 282 293 291 296 304 302 306 313 326 348 344 338 339 341 340 340 340
215 213 211 211 211 211 212 212 212 211 212 212 211 211 212 209 205 203 202 202 204 206 206 206 206 206 209 212 214 214 215 216 215 214 213 213 214 213 213 214 215 215 214 210 206 204 205 204 203 202 200 201 203 206 209 209 210 212 208 200 201 212 226 240 252 258 255 262 281 289 289 292 299 301 307 324 355 348 339 336 340 341 341 343 340
215 214 212 211 211 212 212 212 213 213 213 212 210 210 212 210 206 203 202 202 204 206 206 206 206 207 208 209 208 208 210 212 211 210 208 208 208 207 207 209 210 211 213 214 214 214 212 208 206 207 206 206 209 209 207 207 207 203 198 200 209 221 231 240 249 254 258 269 283 288 291 297 303 301 307 332 342 338 337 337 338 341 346 350 346
214 214 213 212 211 212 212 213 213 214 214 214 212 212 213 211 207 204 201 201 204 206 206 206 206 206 206 206 205 204 205 207 208 207 205 203 201 201 202 203 204 206 207 209 211 213 212 211 213 214 213 214 216 211 205 205 205 200 200 204 203 206 221 231 244 261 270 280 288 287 287 300 313 305 311 332 334 335 339 336 327 338 349 352 349
213 214 213 213 212 212 213 214 214 214 215 215 213 213 214 211 206 203 201 201 203 205 206 205 205 205 206 207 207 205 204 204 206 205 203 201 198 198 198 199 200 203 205 208 209 209 210 211 214 215 214 213 211 205 199 199 200 199 203 205 199 205 225 240 256 268 273 289 301 285 268 290 323 311 320 332 333 335 342 336 323 340 354 354 349
214 215 214 214 213 212 213 214 215 216 216 216 214 212 212 210 204 200 200 200 201 203 203 203 204 205 205 207 208 206 204 204 204 205 203 201 198 197 197 196 198 200 202 206 206 206 209 210 209 209 207 202 201 198 193 192 195 197 199 201 206 219 233 247 262 268 272 298 314 273 245 280 331 318 322 330 331 333 340 341 336 349 355 353 350
214 214 215 214 214 213 214 214 214 216 217 216 214 212 211 207 201 198 198 199 199 201 202 201 202 202 204 206 207 206 205 204 203 203 203 201 199 198 196 194 193 194 197 200 200 200 205 207 205 204 201 195 193 192 190 192 197 201 203 204 211 219 224 235 253 260 271 290 296 262 261 295 326 322 323 326 325 327 336 346 349 349 351 352 353
215 215 214 215 215 214 214 214 214 215 217 217 215 211 209 206 201 198 198 198 197 199 200 200 200 200 202 206 208 207 206 205 203 202 202 201 199 198 196 192 190 191 193 196 197 197 199 199 197 196 193 191 192 192 194 199 205 211 215 215 211 209 213 222 236 255 275 280 268 253 277 309 315 319 323 325 322 324 334 344 342 344 349 354 355
216 216 215 214 215 215 215 215 215 215 216 217 215 211 209 206 202 198 197 196 196 197 197 197 197 198 201 204 207 208 207 205 203 202 202 202 201 200 197 192 189 192 196 198 198 198 197 196 196 195 192 192 194 195 201 208 214 221 226 223 219 220 223 226 229 245 275 267 240 237 292 311 309 312 320 327 323 321 326 332 334 340 349 355 354